TimeCDT,TemperatureF,Dew PointF,Humidity,Sea Level PressureIn,VisibilityMPH,Wind Direction,Wind SpeedMPH,Gust SpeedMPH,PrecipitationIn,Events,Conditions,WindDirDegrees,DateUTC
12:56 AM,64.9,63.0,93,29.77,-9999.0,NE,31.1,38.0,0.02,,Unknown,50,2013-06-21 05:56:00
1:39 AM,66.2,62.6,88,29.84,-9999.0,East,20.7,29.9,N/A,,Unknown,80,2013-06-21 06:39:00
1:56 AM,64.9,61.0,87,29.81,-9999.0,East,17.3,24.2,N/A,,Unknown,80,2013-06-21 06:56:00
2:56 AM,66.9,60.1,79,29.83,-9999.0,East,4.6,-,N/A,,Unknown,100,2013-06-21 07:56:00
3:56 AM,64.9,60.1,84,29.81,-9999.0,North,-9999.0,-,N/A,,Unknown,0,2013-06-21 08:56:00
4:56 AM,-9999,-9999,N/A,29.88,-9999.0,North,-9999.0,-,N/A,,Unknown,0,2013-06-21 09:56:00
5:56 AM,-9999,-9999,N/A,29.85,-9999.0,North,-9999.0,-,N/A,,Unknown,0,2013-06-21 10:56:00
6:56 AM,-9999,-9999,N/A,29.85,-9999.0,North,-9999.0,-,N/A,,Unknown,0,2013-06-21 11:56:00
7:56 AM,-9999,-9999,N/A,29.86,-9999.0,North,-9999.0,-,N/A,,Unknown,0,2013-06-21 12:56:00
8:56 AM,-9999,-9999,N/A,29.89,-9999.0,North,-9999.0,-,N/A,,Unknown,0,2013-06-21 13:56:00
9:56 AM,-9999,-9999,N/A,29.89,-9999.0,North,-9999.0,-,N/A,,Unknown,0,2013-06-21 14:56:00
10:56 AM,-9999,-9999,N/A,29.88,-9999.0,North,-9999.0,-,N/A,,Unknown,0,2013-06-21 15:56:00
11:56 AM,-9999,-9999,N/A,29.88,-9999.0,North,-9999.0,-,N/A,,Unknown,0,2013-06-21 16:56:00
12:56 PM,73.0,64.9,76,29.86,-9999.0,SE,13.8,18.4,N/A,,Unknown,140,2013-06-21 17:56:00
1:56 PM,73.9,64.9,73,29.87,-9999.0,SE,9.2,-,N/A,,Unknown,130,2013-06-21 18:56:00
2:56 PM,72.0,64.9,78,29.85,-9999.0,ENE,9.2,-,N/A,,Unknown,70,2013-06-21 19:56:00
3:56 PM,70.0,66.9,90,29.88,-9999.0,North,10.4,-,N/A,,Unknown,360,2013-06-21 20:56:00
4:18 PM,69.8,66.2,88,29.96,-9999.0,NNW,12.7,-,0.03,,Unknown,340,2013-06-21 21:18:00
4:56 PM,69.1,66.0,90,29.99,-9999.0,NW,19.6,27.6,0.06,,Unknown,320,2013-06-21 21:56:00
5:56 PM,66.9,64.9,93,29.99,-9999.0,ENE,10.4,-,0.07,,Unknown,60,2013-06-21 22:56:00
6:56 PM,66.9,63.0,87,29.77,-9999.0,NE,36.8,46.0,0.07,,Unknown,50,2013-06-21 23:56:00
7:56 PM,66.9,60.1,79,29.83,-9999.0,ESE,4.6,-,N/A,,Unknown,110,2013-06-22 00:56:00
8:56 PM,64.9,61.0,87,29.83,-9999.0,SSW,4.6,-,N/A,,Unknown,200,2013-06-22 01:56:00
9:56 PM,63.0,61.0,93,29.86,-9999.0,SSW,4.6,-,N/A,,Unknown,200,2013-06-22 02:56:00
10:56 PM,60.1,59.0,96,29.87,-9999.0,NE,5.8,-,N/A,,Unknown,40,2013-06-22 03:56:00
11:56 PM,61.0,60.1,97,29.91,-9999.0,North,5.8,-,N/A,,Unknown,360,2013-06-22 04:56:00